Location: *
(24.1434°N, 56.8729°E)
Time: 07:56:09
(UTC+00:00)

Cosmos 1328 - Pass Details

Date: 09 April 2020
Orbit: 540 x 544 km, 82.5° (Epoch: 25 May)

Event Time Altitude Azimuth Distance (km) Brightness Sun altitude
Rises 16:00:48 0° 355° (N) 2,705 7.7 -20.5°
Reaches altitude 10° 16:02:58 10° 355° (N) 1,810 6.7 -21.0°
Maximum altitude 16:06:57 89° 73° (ENE) 548 3.6 -21.8°
Enters shadow 16:07:30 66° 173° (S) 596 3.8 -21.9°
